Change the Weather History Date:

Thursday, March 21, 2013

  Actual Average (KAKO) Record (KAKO)
Temperature  
Mean Temperature 41 °F 40 °F  
Max Temperature 57 °F 54 °F 77 °F (1945)
Min Temperature 25 °F 27 °F 4 °F (1955)
Degree Days  
Heating Degree Days 24    
Month to date heating degree days  
Cooling Degree Days 0    
Month to date cooling degree days  
Moisture  
Dew Point 25 °F    
Average Humidity 64    
Maximum Humidity 89    
Minimum Humidity 32    
Precipitation  
Precipitation 0.00 in 0.03 in 0.61 in (1973)
Month to date precipitation 0.53  
Year to date precipitation 1.27  
Sea Level Pressure  
Sea Level Pressure 29.67 in    
Wind  
Wind Speed 7 mph (North)    
Max Wind Speed 36 mph    
Max Gust Speed 43 mph    
Visibility 10 miles    
Events Thunderstorm    
T = Trace of Precipitation, MM = Missing Value Source: NWS Daily Summary

Daily Weather History Graph

Daily Weather History Graph

Search for Another Location

Airport or City:

Trip Planner

Search our weather history database for the weather conditions in past years. The results will help you decide how hot, cold, wet, or windy it might be!

Date:

Astronomy

Mar. 21, 2013 Rise Set
Actual Time 6:56 AM MDT 7:08 PM MDT
Civil Twilight 6:29 AM MDT 7:35 PM MDT
Nautical Twilight 5:57 AM MDT 8:07 PM MDT
Astronomical Twilight 5:25 AM MDT 8:40 PM MDT
Moon 1:40 PM MDT (3/21) 3:20 AM MDT (3/21)
Length of Visible Light 13h 06m
Length of Day
12h 12m
Waxing Gibbous, 69% of the Moon is Illuminated
Mar 21
Waxing Gibbous
Mar 27
Full
Apr 2
Last Quarter
Apr 10
New
Apr 18
First Quarter

Hourly Weather History & Observations

Time (MDT) Temp. Windchill Dew Point Humidity Pressure Visibility Wind Dir Wind Speed Gust Speed Precip Events Conditions
12:15 AM 36.3 °F 29.5 °F 19.9 °F 52% 29.72 in 10.0 mi NE 9.2 mph - N/A   Clear
12:35 AM 32.5 °F - 21.4 °F 64% 29.72 in 10.0 mi Calm Calm - N/A   Clear
12:55 AM 35.4 °F - 21.0 °F 56% 29.71 in 10.0 mi Calm Calm - N/A   Clear
1:15 AM 34.7 °F - 21.2 °F 58% 29.70 in 10.0 mi Calm Calm - N/A   Clear
1:35 AM 34.5 °F - 21.2 °F 58% 29.70 in 10.0 mi Calm Calm - N/A   Scattered Clouds
1:55 AM 35.1 °F - 21.2 °F 57% 29.70 in 10.0 mi Calm Calm - N/A   Scattered Clouds
2:15 AM 33.4 °F 27.3 °F 21.9 °F 63% 29.70 in 10.0 mi West 6.9 mph - N/A   Scattered Clouds
2:35 AM 32.2 °F 27.7 °F 22.3 °F 67% 29.69 in 10.0 mi West 4.6 mph - N/A   Scattered Clouds
2:55 AM 32.0 °F 28.7 °F 22.1 °F 67% 29.69 in 10.0 mi West 3.5 mph - N/A   Clear
3:15 AM 30.2 °F 24.3 °F 22.3 °F 72% 29.68 in 10.0 mi West 5.8 mph - N/A   Clear
3:35 AM 31.3 °F 27.9 °F 21.4 °F 67% 29.67 in 10.0 mi West 3.5 mph - N/A   Clear
3:55 AM 34.2 °F - 21.0 °F 59% 29.66 in 10.0 mi Calm Calm - N/A   Clear
4:15 AM 29.1 °F - 20.8 °F 71% 29.66 in 10.0 mi Calm Calm - N/A   Clear
4:35 AM 28.9 °F - 21.7 °F 74% 29.66 in 10.0 mi Calm Calm - N/A   Clear
4:55 AM 29.7 °F - 21.7 °F 72% 29.65 in 10.0 mi Calm Calm - N/A   Clear
5:15 AM 25.9 °F 21.7 °F 18.7 °F 74% 29.65 in 10.0 mi ENE 3.5 mph - N/A   Clear
5:35 AM 27.0 °F 21.6 °F 21.7 °F 81% 29.65 in 10.0 mi SW 4.6 mph - N/A   Clear
5:55 AM 28.0 °F 21.7 °F 22.3 °F 79% 29.64 in 10.0 mi WNW 5.8 mph - N/A   Clear
6:15 AM 26.4 °F 19.8 °F 21.6 °F 82% 29.63 in 10.0 mi WNW 5.8 mph - N/A   Clear
6:35 AM 27.5 °F 22.2 °F 21.7 °F 79% 29.63 in 10.0 mi NNW 4.6 mph - N/A   Clear
6:55 AM 25.2 °F 20.9 °F 20.7 °F 83% 29.62 in 10.0 mi WNW 3.5 mph - N/A   Clear
7:15 AM 26.2 °F 22.1 °F 21.7 °F 83% 29.63 in 10.0 mi North 3.5 mph - N/A   Clear
7:35 AM 31.6 °F - 26.6 °F 82% 29.62 in 10.0 mi Calm Calm - N/A   Clear
7:55 AM 31.1 °F 27.7 °F 24.6 °F 77% 29.62 in 10.0 mi NNE 3.5 mph - N/A   Clear
8:15 AM 30.7 °F - 23.9 °F 76% 29.61 in 10.0 mi Calm Calm - N/A   Clear
8:35 AM 31.1 °F 25.4 °F 23.5 °F 74% 29.61 in 10.0 mi NE 5.8 mph - N/A   Clear
8:55 AM 32.0 °F 28.7 °F 24.6 °F 74% 29.61 in 10.0 mi ENE 3.5 mph - N/A   Mostly Cloudy
9:15 AM 32.4 °F 26.0 °F 24.6 °F 73% 29.62 in 10.0 mi NNE 6.9 mph - N/A   Mostly Cloudy
9:35 AM 34.2 °F 27.5 °F 24.8 °F 69% 29.62 in 10.0 mi North 8.1 mph - N/A   Overcast
9:55 AM 36.5 °F 29.2 °F 24.6 °F 62% 29.62 in 10.0 mi NNW 10.4 mph - N/A   Overcast
10:15 AM 38.7 °F 32.9 °F 25.5 °F 59% 29.62 in 10.0 mi NNW 8.1 mph - N/A   Overcast
10:35 AM 41.9 °F 35.9 °F 25.0 °F 51% 29.62 in 10.0 mi North 10.4 mph - N/A   Mostly Cloudy
10:55 AM 42.4 °F 40.7 °F 24.6 °F 49% 29.62 in 10.0 mi ENE 3.5 mph - N/A   Mostly Cloudy
11:15 AM 42.4 °F 37.5 °F 23.9 °F 48% 29.61 in 10.0 mi North 8.1 mph - N/A   Overcast
11:35 AM 43.0 °F 36.4 °F 28.8 °F 57% 29.57 in 10.0 mi ENE 12.7 mph - N/A   Overcast
11:55 AM 44.8 °F 39.0 °F 27.1 °F 50% 29.57 in 10.0 mi East 11.5 mph - N/A   Overcast
12:15 PM 47.8 °F - 27.9 °F 46% 29.57 in 10.0 mi ENE 9.2 mph - N/A   Mostly Cloudy
12:35 PM 49.5 °F - 28.2 °F 44% 29.57 in 10.0 mi East 11.5 mph - N/A   Scattered Clouds
12:55 PM 49.6 °F - 27.5 °F 42% 29.57 in 10.0 mi ESE 9.2 mph - N/A   Clear
1:15 PM 52.2 °F - 26.8 °F 37% 29.57 in 10.0 mi East 11.5 mph - N/A   Clear
1:35 PM 53.4 °F - 26.8 °F 36% 29.57 in 10.0 mi SE 8.1 mph - N/A   Scattered Clouds
1:55 PM 55.6 °F - 26.2 °F 32% 29.56 in 10.0 mi East 6.9 mph 16.1 mph N/A   Scattered Clouds
2:15 PM 57.0 °F - 27.5 °F 32% 29.55 in 10.0 mi ESE 8.1 mph 18.4 mph N/A   Scattered Clouds
2:35 PM 55.2 °F - 28.0 °F 35% 29.56 in 10.0 mi Calm Calm - N/A   Mostly Cloudy
2:55 PM 43.0 °F 31.7 °F 32.9 °F 68% 29.58 in 10.0 mi North 35.7 mph 42.6 mph N/A   Overcast
3:15 PM 39.6 °F 28.3 °F 35.6 °F 86% 29.59 in 10.0 mi North 27.6 mph 35.7 mph N/A   Overcast
3:35 PM 38.7 °F 27.3 °F 35.1 °F 87% 29.60 in 10.0 mi North 26.5 mph 38.0 mph N/A Thunderstorm Overcast
3:55 PM 40.1 °F 31.6 °F 35.2 °F 83% 29.64 in 10.0 mi NNW 16.1 mph 26.5 mph N/A Thunderstorm Overcast
4:15 PM 39.4 °F 30.1 °F 35.6 °F 86% 29.66 in 2.0 mi NW 18.4 mph 26.5 mph N/A Thunderstorm Overcast
4:35 PM 39.2 °F 32.5 °F 36.3 °F 89% 29.66 in 3.0 mi North 10.4 mph - N/A   Overcast
4:55 PM 40.1 °F 32.4 °F 34.5 °F 80% 29.66 in 5.0 mi NW 13.8 mph 20.7 mph N/A   Overcast
5:15 PM 42.4 °F 38.8 °F 32.0 °F 67% 29.65 in 10.0 mi North 5.8 mph 17.3 mph N/A   Overcast
5:35 PM 43.2 °F 34.0 °F 31.6 °F 64% 29.66 in 10.0 mi NNW 23.0 mph 34.5 mph N/A   Overcast
5:55 PM 42.8 °F 35.8 °F 31.6 °F 65% 29.66 in 10.0 mi NNW 13.8 mph 17.3 mph N/A   Overcast
6:15 PM 43.0 °F 36.4 °F 33.3 °F 69% 29.68 in 10.0 mi North 12.7 mph - N/A   Mostly Cloudy
6:35 PM 40.8 °F 36.9 °F 33.3 °F 74% 29.68 in 10.0 mi North 5.8 mph - N/A   Mostly Cloudy
6:55 PM 40.6 °F 35.4 °F 32.4 °F 72% 29.70 in 10.0 mi NNW 8.1 mph - N/A   Overcast
7:15 PM 40.6 °F 35.4 °F 31.1 °F 69% 29.72 in 10.0 mi North 8.1 mph - N/A   Overcast
7:35 PM 39.7 °F 32.7 °F 29.5 °F 67% 29.73 in 10.0 mi NNW 11.5 mph 16.1 mph N/A   Mostly Cloudy
7:55 PM 40.6 °F 31.2 °F 23.4 °F 50% 29.74 in 10.0 mi NNW 20.7 mph 27.6 mph N/A   Overcast
8:15 PM 39.2 °F 30.2 °F 21.4 °F 49% 29.75 in 10.0 mi NNW 17.3 mph 26.5 mph N/A   Scattered Clouds
8:35 PM 37.6 °F 26.6 °F 20.1 °F 49% 29.76 in 10.0 mi NW 23.0 mph 27.6 mph N/A   Scattered Clouds
8:55 PM 37.6 °F - 18.7 °F 47% 29.77 in 10.0 mi North - - N/A   Clear
9:15 PM 37.4 °F 26.1 °F 17.8 °F 45% 29.79 in 10.0 mi NW 24.2 mph 32.2 mph N/A   Clear
9:35 PM 37.8 °F 26.6 °F 16.2 °F 42% 29.79 in 10.0 mi NW 24.2 mph 31.1 mph N/A   Clear
9:55 PM 36.0 °F 26.0 °F 19.0 °F 50% 29.80 in 10.0 mi NNW 17.3 mph - N/A   Clear
10:15 PM 34.2 °F 24.4 °F 19.9 °F 56% 29.81 in 10.0 mi NNW 15.0 mph - N/A   Clear
10:35 PM 34.7 °F 24.7 °F 19.6 °F 54% 29.81 in 10.0 mi NNW 16.1 mph - N/A   Clear
10:55 PM 34.5 °F 24.5 °F 20.8 °F 57% 29.82 in 10.0 mi NNW 16.1 mph 19.6 mph N/A   Clear
11:15 PM 32.4 °F 23.5 °F 26.4 °F 79% 29.84 in 10.0 mi North 11.5 mph - N/A   Clear
11:35 PM 31.5 °F 20.9 °F 26.4 °F 82% 29.83 in 10.0 mi North 15.0 mph - N/A   Clear
11:55 PM 30.7 °F 19.6 °F 25.9 °F 82% 29.83 in 10.0 mi North 16.1 mph - N/A   Clear